| time (UTC) | temp C | wind direction | speed KPH | gust KPH | rain 1hr cm | rain 24hr cm | rain mn cm | humidity % | barometer mb |
| 20260502170120 | 11 | 253 | 8.0 | 8.0 | 0.00 | 0.00 | 0.00 | 38 | 1025.3 |
| 20260502164107 | 10 | 269 | 6.4 | 6.4 | 0.00 | 0.00 | 0.00 | 39 | 1025.4 |
| 20260502163603 | 10 | 246 | 6.4 | 6.4 | 0.00 | 0.00 | 0.00 | 40 | 1025.4 |
| 20260502163100 | 10 | 277 | 4.8 | 4.8 | 0.00 | 0.00 | 0.00 | 45 | 1025.3 |
| 20260502162556 | 10 | 275 | 4.8 | 4.8 | 0.00 | 0.00 | 0.00 | 47 | 1025.4 |
| 20260502162054 | 9 | 256 | 3.2 | 4.8 | 0.00 | 0.00 | 0.00 | 46 | 1025.6 |
| 20260502161550 | 9 | 267 | 4.8 | 6.4 | 0.00 | 0.00 | 0.00 | 48 | 1025.5 |
| 20260502161048 | 8 | 265 | 6.4 | 6.4 | 0.00 | 0.00 | 0.00 | 47 | 1025.4 |
| 20260502160546 | 8 | 259 | 4.8 | 4.8 | 0.00 | 0.00 | 0.00 | 48 | 1025.4 |
| 20260502151959 | 5 | 163 | 3.2 | 4.8 | 0.00 | 0.00 | 0.00 | 53 | 1025.8 |
| 20260502151455 | 4 | 281 | 3.2 | 3.2 | 0.00 | 0.00 | 0.00 | 54 | 1025.8 |
| 20260502150953 | 4 | 278 | 0.0 | 3.2 | 0.00 | 0.00 | 0.00 | 55 | 1025.8 |
| 20260502150450 | 4 | 311 | 3.2 | 4.8 | 0.00 | 0.00 | 0.00 | 55 | 1025.9 |
| 20260502130329 | 0 | 272 | 1.6 | 4.8 | 0.00 | 0.00 | 0.00 | 65 | 1025.5 |
| 20260502123815 | 0 | 229 | 3.2 | 4.8 | 0.00 | 0.00 | 0.00 | 64 | 1025.4 |
| 20260502123312 | 0 | 246 | 3.2 | 4.8 | 0.00 | 0.00 | 0.00 | 64 | 1025.3 |
| 20260502122809 | 0 | 0 | 0.0 | 3.2 | 0.00 | 0.00 | 0.00 | 64 | 1025.4 |
| 20260502122306 | 1 | 343 | 0.0 | 6.4 | 0.00 | 0.00 | 0.00 | 60 | 1025.4 |
| 20260502121803 | 0 | 346 | 3.2 | 6.4 | 0.00 | 0.00 | 0.00 | 63 | 1025.4 |
| 20260502121300 | 1 | 330 | 3.2 | 4.8 | 0.00 | 0.00 | 0.00 | 62 | 1025.3 |
| 20260502120757 | 1 | 341 | 3.2 | 4.8 | 0.00 | 0.00 | 0.00 | 64 | 1025.3 |
| 20260502120254 | 1 | 332 | 3.2 | 3.2 | 0.00 | 0.00 | 0.00 | 63 | 1025.4 |
| 20260502115752 | 0 | 348 | 0.0 | 3.2 | 0.00 | 0.00 | 0.00 | 62 | 1025.2 |
| 20260502115248 | 0 | 15 | 0.0 | 3.2 | 0.00 | 0.00 | 0.00 | 63 | 1025.3 |
| 20260502114744 | 0 | 332 | 1.6 | 3.2 | 0.00 | 0.00 | 0.00 | 66 | 1025.2 |
| 20260502114241 | 0 | 299 | 0.0 | 3.2 | 0.00 | 0.00 | 0.00 | 63 | 1025.2 |
| 20260502113738 | 0 | 220 | 3.2 | 6.4 | 0.00 | 0.00 | 0.00 | 63 | 1025.3 |
| 20260502113236 | 0 | 278 | 3.2 | 6.4 | 0.00 | 0.00 | 0.00 | 66 | 1025.2 |
| 20260502112734 | 0 | 274 | 0.0 | 4.8 | 0.00 | 0.00 | 0.00 | 63 | 1025.2 |
| 20260502112231 | 0 | 271 | 3.2 | 4.8 | 0.00 | 0.00 | 0.00 | 64 | 1025.2 |
| 20260502111728 | 1 | 304 | 3.2 | 6.4 | 0.00 | 0.00 | 0.00 | 65 | 1025.3 |
| 20260502111226 | 1 | 266 | 3.2 | 3.2 | 0.00 | 0.00 | 0.00 | 64 | 1025.4 |
| 20260502110723 | 1 | 309 | 1.6 | 3.2 | 0.00 | 0.00 | 0.00 | 66 | 1025.2 |
| 20260502110221 | 1 | 261 | 0.0 | 4.8 | 0.00 | 0.00 | 0.00 | 64 | 1025.2 |
| 20260502105719 | 1 | 309 | 3.2 | 3.2 | 0.00 | 0.00 | 0.00 | 62 | 1025.3 |
| 20260502105215 | 1 | 281 | 1.6 | 3.2 | 0.00 | 0.00 | 0.00 | 63 | 1025.3 |
| 20260502104713 | 2 | 293 | 1.6 | 3.2 | 0.00 | 0.00 | 0.00 | 58 | 1025.5 |
| 20260502104210 | 2 | 295 | 0.0 | 3.2 | 0.00 | 0.00 | 0.00 | 58 | 1025.4 |
| 20260502103707 | 1 | 336 | 0.0 | 1.6 | 0.00 | 0.00 | 0.00 | 61 | 1025.4 |
| 20260502103205 | 1 | 302 | 1.6 | 3.2 | 0.00 | 0.00 | 0.00 | 60 | 1025.3 |
| 20260502102702 | 1 | 284 | 3.2 | 3.2 | 0.00 | 0.00 | 0.00 | 58 | 1025.4 |
| 20260502102158 | 1 | 295 | 0.0 | 3.2 | 0.00 | 0.00 | 0.00 | 63 | 1025.3 |
| 20260502101656 | 1 | 299 | 0.0 | 1.6 | 0.00 | 0.00 | 0.00 | 60 | 1025.2 |
| 20260502101154 | 1 | 287 | 1.6 | 3.2 | 0.00 | 0.00 | 0.00 | 64 | 1025.3 |
| 20260502100653 | 1 | 302 | 1.6 | 3.2 | 0.00 | 0.00 | 0.00 | 61 | 1025.2 |
| 20260502100150 | 1 | 280 | 3.2 | 3.2 | 0.00 | 0.00 | 0.00 | 63 | 1025.2 |
| 20260502091125 | 3 | 293 | 0.0 | 3.2 | 0.00 | 0.00 | 0.00 | 58 | 1024.9 |
| 20260502090621 | 3 | 297 | 1.6 | 1.6 | 0.00 | 0.00 | 0.00 | 56 | 1025.0 |
| 20260502090119 | 3 | 235 | 1.6 | 3.2 | 0.00 | 0.00 | 0.00 | 53 | 1025.0 |
| 20260502071521 | 5 | 302 | 0.0 | 1.6 | 0.00 | 0.00 | 0.00 | 50 | 1024.9 |
| 20260502071020 | 5 | 277 | 0.0 | 1.6 | 0.00 | 0.00 | 0.00 | 51 | 1025.0 |
| 20260502070517 | 5 | 258 | 1.6 | 3.2 | 0.00 | 0.00 | 0.00 | 51 | 1024.9 |
| 20260502070015 | 5 | 286 | 3.2 | 3.2 | 0.00 | 0.00 | 0.00 | 51 | 1024.9 |
| 20260502065513 | 5 | 290 | 0.0 | 1.6 | 0.00 | 0.00 | 0.00 | 47 | 1025.0 |
| 20260502065011 | 5 | 311 | 0.0 | 0.0 | 0.00 | 0.00 | 0.00 | 48 | 1025.0 |
| 20260502064509 | 5 | 297 | 0.0 | 1.6 | 0.00 | 0.00 | 0.00 | 49 | 1024.8 |
| 20260502064006 | 5 | 310 | 0.0 | 3.2 | 0.00 | 0.00 | 0.00 | 49 | 1024.6 |
| 20260502063504 | 5 | 314 | 0.0 | 1.6 | 0.00 | 0.00 | 0.00 | 47 | 1024.7 |
| 20260502063001 | 5 | 296 | 0.0 | 0.0 | 0.00 | 0.00 | 0.00 | 49 | 1024.8 |
| 20260502062457 | 5 | 280 | 0.0 | 1.6 | 0.00 | 0.00 | 0.00 | 48 | 1024.7 |
| 20260502061956 | 5 | 304 | 0.0 | 1.6 | 0.00 | 0.00 | 0.00 | 49 | 1024.7 |
| 20260502061454 | 6 | 283 | 0.0 | 1.6 | 0.00 | 0.00 | 0.00 | 47 | 1024.7 |
| 20260502060950 | 6 | 283 | 0.0 | 0.0 | 0.00 | 0.00 | 0.00 | 48 | 1024.7 |
| 20260502060445 | 6 | 293 | 0.0 | 1.6 | 0.00 | 0.00 | 0.00 | 49 | 1024.7 |
| 20260502055942 | 6 | 300 | 1.6 | 3.2 | 0.00 | 0.00 | 0.00 | 47 | 1024.7 |
| 20260502055441 | 6 | 269 | 0.0 | 1.6 | 0.00 | 0.00 | 0.00 | 47 | 1024.6 |
| 20260502054940 | 6 | 286 | 0.0 | 0.0 | 0.00 | 0.00 | 0.00 | 46 | 1024.6 |
| 20260502054438 | 6 | 279 | 0.0 | 1.6 | 0.00 | 0.00 | 0.00 | 47 | 1024.7 |
| 20260502053935 | 6 | 288 | 0.0 | 1.6 | 0.00 | 0.00 | 0.00 | 47 | 1024.6 |
| 20260502053432 | 6 | 287 | 0.0 | 0.0 | 0.00 | 0.00 | 0.00 | 47 | 1024.7 |
| 20260502052930 | 6 | 269 | 0.0 | 1.6 | 0.00 | 0.00 | 0.00 | 47 | 1024.6 |
| 20260502052428 | 6 | 293 | 0.0 | 0.0 | 0.00 | 0.00 | 0.00 | 45 | 1024.6 |
| 20260502051926 | 6 | 306 | 0.0 | 3.2 | 0.00 | 0.00 | 0.00 | 48 | 1024.4 |
| 20260502051423 | 6 | 244 | 1.6 | 3.2 | 0.00 | 0.00 | 0.00 | 45 | 1024.4 |
| 20260502050920 | 6 | 310 | 0.0 | 1.6 | 0.00 | 0.00 | 0.00 | 44 | 1024.4 |
| 20260502050416 | 6 | 306 | 0.0 | 0.0 | 0.00 | 0.00 | 0.00 | 44 | 1024.6 |
| 20260502045914 | 6 | 302 | 0.0 | 3.2 | 0.00 | 0.00 | 0.00 | 44 | 1024.4 |
| 20260502045411 | 6 | 321 | 0.0 | 1.6 | 0.00 | 0.00 | 0.00 | 43 | 1024.3 |
| 20260502044908 | 6 | 306 | 0.0 | 3.2 | 0.00 | 0.00 | 0.00 | 48 | 1024.4 |
| 20260502044403 | 6 | 283 | 0.0 | 3.2 | 0.00 | 0.00 | 0.00 | 44 | 1024.4 |
| 20260502043900 | 6 | 269 | 0.0 | 3.2 | 0.00 | 0.00 | 0.00 | 46 | 1024.3 |
| 20260502043358 | 7 | 281 | 1.6 | 3.2 | 0.00 | 0.00 | 0.00 | 44 | 1024.1 |
| 20260502042857 | 7 | 278 | 1.6 | 1.6 | 0.00 | 0.00 | 0.00 | 45 | 1024.4 |
| 20260502042355 | 7 | 303 | 1.6 | 1.6 | 0.00 | 0.00 | 0.00 | 45 | 1024.3 |
| 20260502041852 | 7 | 277 | 0.0 | 3.2 | 0.00 | 0.00 | 0.00 | 44 | 1024.3 |
| 20260502041349 | 7 | 253 | 1.6 | 3.2 | 0.00 | 0.00 | 0.00 | 43 | 1024.3 |
| 20260502040846 | 7 | 251 | 3.2 | 4.8 | 0.00 | 0.00 | 0.00 | 44 | 1024.3 |
| 20260502040343 | 8 | 273 | 1.6 | 1.6 | 0.00 | 0.00 | 0.00 | 41 | 1023.9 |
| 20260502035839 | 8 | 269 | 0.0 | 3.2 | 0.00 | 0.00 | 0.00 | 42 | 1023.9 |
| 20260502035336 | 8 | 248 | 0.0 | 3.2 | 0.00 | 0.00 | 0.00 | 39 | 1024.1 |
| 20260502034833 | 8 | 238 | 1.6 | 3.2 | 0.00 | 0.00 | 0.00 | 38 | 1023.6 |
| 20260502034332 | 8 | 268 | 1.6 | 1.6 | 0.00 | 0.00 | 0.00 | 38 | 1023.8 |
| 20260502033830 | 8 | 275 | 1.6 | 3.2 | 0.00 | 0.00 | 0.00 | 40 | 1023.7 |
| 20260502033327 | 9 | 256 | 1.6 | 3.2 | 0.00 | 0.00 | 0.00 | 38 | 1023.6 |
| 20260502032824 | 9 | 235 | 0.0 | 1.6 | 0.00 | 0.00 | 0.00 | 37 | 1023.6 |
| 20260502032320 | 9 | 295 | 0.0 | 1.6 | 0.00 | 0.00 | 0.00 | 37 | 1023.3 |
| 20260502031818 | 9 | 299 | 0.0 | 1.6 | 0.00 | 0.00 | 0.00 | 38 | 1023.5 |
| 20260502031316 | 10 | 283 | 0.0 | 1.6 | 0.00 | 0.00 | 0.00 | 39 | 1023.3 |
| 20260502030814 | 10 | 280 | 1.6 | 3.2 | 0.00 | 0.00 | 0.00 | 37 | 1023.5 |
| 20260502030312 | 10 | 259 | 1.6 | 3.2 | 0.00 | 0.00 | 0.00 | 35 | 1023.2 |
| 20260502025809 | 10 | 260 | 1.6 | 3.2 | 0.00 | 0.00 | 0.00 | 34 | 1023.2 |
| 20260502025307 | 10 | 262 | 1.6 | 1.6 | 0.00 | 0.00 | 0.00 | 35 | 1023.1 |
| 20260502024804 | 10 | 269 | 0.0 | 1.6 | 0.00 | 0.00 | 0.00 | 34 | 1023.0 |
| 20260502024302 | 10 | 269 | 0.0 | 3.2 | 0.00 | 0.00 | 0.00 | 37 | 1022.9 |
| 20260502023800 | 11 | 263 | 3.2 | 3.2 | 0.00 | 0.00 | 0.00 | 34 | 1022.9 |
| 20260502023257 | 11 | 254 | 0.0 | 1.6 | 0.00 | 0.00 | 0.00 | 35 | 1022.7 |
| 20260502022755 | 10 | 293 | 0.0 | 1.6 | 0.00 | 0.00 | 0.00 | 37 | 1023.1 |
| 20260502022250 | 11 | 306 | 0.0 | 3.2 | 0.00 | 0.00 | 0.00 | 37 | 1023.0 |
| 20260502021748 | 11 | 309 | 0.0 | 3.2 | 0.00 | 0.00 | 0.00 | 33 | 1022.6 |
| 20260502021245 | 11 | 294 | 1.6 | 1.6 | 0.00 | 0.00 | 0.00 | 32 | 1022.9 |
| 20260502020742 | 12 | 288 | 1.6 | 1.6 | 0.00 | 0.00 | 0.00 | 32 | 1022.9 |
| 20260502020240 | 12 | 296 | 0.0 | 3.2 | 0.00 | 0.00 | 0.00 | 32 | 1022.7 |
| 20260502015737 | 12 | 272 | 3.2 | 3.2 | 0.00 | 0.00 | 0.00 | 28 | 1023.0 |
| 20260502015233 | 12 | 229 | 0.0 | 3.2 | 0.00 | 0.00 | 0.00 | 28 | 1022.7 |
| 20260502014731 | 13 | 304 | 0.0 | 3.2 | 0.00 | 0.00 | 0.00 | 30 | 1022.6 |
| 20260502014228 | 13 | 247 | 1.6 | 4.8 | 0.00 | 0.00 | 0.00 | 27 | 1022.7 |
| 20260502013724 | 14 | 283 | 1.6 | 3.2 | 0.00 | 0.00 | 0.00 | 30 | 1022.7 |
| 20260502013219 | 14 | 304 | 3.2 | 6.4 | 0.00 | 0.00 | 0.00 | 30 | 1022.6 |
| 20260502012717 | 15 | 305 | 0.0 | 6.4 | 0.00 | 0.00 | 0.00 | 27 | 1022.6 |
| 20260502012215 | 15 | 256 | 4.8 | 6.4 | 0.00 | 0.00 | 0.00 | 24 | 1022.6 |
| 20260502011711 | 15 | 296 | 3.2 | 3.2 | 0.00 | 0.00 | 0.00 | 23 | 1022.5 |
| 20260502011207 | 15 | 271 | 3.2 | 3.2 | 0.00 | 0.00 | 0.00 | 24 | 1022.6 |
| 20260502010705 | 15 | 267 | 3.2 | 4.8 | 0.00 | 0.00 | 0.00 | 26 | 1022.7 |
| 20260502010201 | 16 | 223 | 1.6 | 4.8 | 0.00 | 0.00 | 0.00 | 22 | 1022.7 |
| 20260502005658 | 16 | 322 | 3.2 | 4.8 | 0.00 | 0.00 | 0.00 | 26 | 1022.9 |
| 20260502005156 | 16 | 250 | 4.8 | 6.4 | 0.00 | 0.00 | 0.00 | 24 | 1022.9 |
| 20260502004652 | 15 | 258 | 3.2 | 4.8 | 0.00 | 0.00 | 0.00 | 24 | 1022.7 |
| 20260502004149 | 15 | 245 | 4.8 | 6.4 | 0.00 | 0.00 | 0.00 | 22 | 1022.9 |
| 20260502003646 | 15 | 277 | 3.2 | 6.4 | 0.00 | 0.00 | 0.00 | 23 | 1022.9 |
| 20260502003144 | 15 | 236 | 3.2 | 6.4 | 0.00 | 0.00 | 0.00 | 23 | 1022.7 |
| 20260502002639 | 16 | 249 | 4.8 | 6.4 | 0.00 | 0.00 | 0.00 | 25 | 1022.9 |
| 20260502002137 | 15 | 242 | 1.6 | 4.8 | 0.00 | 0.00 | 0.00 | 21 | 1022.7 |
| 20260502001635 | 16 | 256 | 6.4 | 9.7 | 0.00 | 0.00 | 0.00 | 22 | 1022.7 |
| 20260502001132 | 16 | 275 | 3.2 | 6.4 | 0.00 | 0.00 | 0.00 | 23 | 1022.9 |
| 20260502000630 | 16 | 236 | 1.6 | 4.8 | 0.00 | 0.00 | 0.00 | 21 | 1023.0 |
| 20260502000127 | 16 | 245 | 6.4 | 9.7 | 0.00 | 0.00 | 0.00 | 21 | 1022.9 |
| 20260501235623 | 16 | 256 | 4.8 | 9.7 | 0.00 | 0.00 | 0.00 | 24 | 1022.9 |
| 20260501235119 | 17 | 285 | 1.6 | 6.4 | 0.00 | 0.00 | 0.00 | 22 | 1023.0 |
| 20260501234614 | 18 | 290 | 4.8 | 4.8 | 0.00 | 0.00 | 0.00 | 21 | 1022.9 |
| 20260501234112 | 18 | 308 | 1.6 | 6.4 | 0.00 | 0.00 | 0.00 | 22 | 1022.7 |
| 20260501233610 | 18 | 311 | 4.8 | 6.4 | 0.00 | 0.00 | 0.00 | 22 | 1022.9 |
| 20260501233108 | 17 | 272 | 3.2 | 6.4 | 0.00 | 0.00 | 0.00 | 23 | 1023.0 |
| 20260501232603 | 16 | 247 | 1.6 | 8.0 | 0.00 | 0.00 | 0.00 | 22 | 1023.0 |
| 20260501232101 | 16 | 291 | 4.8 | 8.0 | 0.00 | 0.00 | 0.00 | 23 | 1022.9 |
| 20260501231558 | 16 | 237 | 6.4 | 8.0 | 0.00 | 0.00 | 0.00 | 26 | 1022.7 |
| 20260501231056 | 16 | 256 | 4.8 | 6.4 | 0.00 | 0.00 | 0.00 | 25 | 1023.0 |
| 20260501230555 | 16 | 245 | 6.4 | 9.7 | 0.00 | 0.00 | 0.00 | 24 | 1023.1 |
| 20260501230052 | 15 | 221 | 3.2 | 8.0 | 0.00 | 0.00 | 0.00 | 26 | 1023.1 |
| 20260501225549 | 15 | 242 | 4.8 | 14.5 | 0.00 | 0.00 | 0.00 | 25 | 1023.1 |
| 20260501225046 | 15 | 254 | 4.8 | 6.4 | 0.00 | 0.00 | 0.00 | 25 | 1022.9 |
| 20260501224543 | 16 | 235 | 9.7 | 9.7 | 0.00 | 0.00 | 0.00 | 28 | 1023.0 |
| 20260501224040 | 15 | 252 | 8.0 | 9.7 | 0.00 | 0.00 | 0.00 | 27 | 1023.0 |
| 20260501223537 | 15 | 298 | 4.8 | 6.4 | 0.00 | 0.00 | 0.00 | 28 | 1023.3 |
| 20260501223033 | 15 | 260 | 6.4 | 8.0 | 0.00 | 0.00 | 0.00 | 27 | 1023.1 |
| 20260501222529 | 15 | 281 | 4.8 | 8.0 | 0.00 | 0.00 | 0.00 | 29 | 1023.2 |
| 20260501222026 | 15 | 253 | 4.8 | 11.3 | 0.00 | 0.00 | 0.00 | 29 | 1023.2 |
| 20260501221523 | 15 | 286 | 6.4 | 6.4 | 0.00 | 0.00 | 0.00 | 29 | 1023.3 |
| 20260501221021 | 15 | 254 | 4.8 | 9.7 | 0.00 | 0.00 | 0.00 | 27 | 1023.3 |
| 20260501220518 | 15 | 273 | 3.2 | 8.0 | 0.00 | 0.00 | 0.00 | 28 | 1023.5 |
| 20260501220015 | 15 | 236 | 6.4 | 8.0 | 0.00 | 0.00 | 0.00 | 29 | 1023.5 |
| 20260501215511 | 15 | 251 | 6.4 | 9.7 | 0.00 | 0.00 | 0.00 | 28 | 1023.3 |
| 20260501215006 | 15 | 250 | 6.4 | 14.5 | 0.00 | 0.00 | 0.00 | 28 | 1023.3 |
| 20260501214502 | 16 | 340 | 4.8 | 6.4 | 0.00 | 0.00 | 0.00 | 28 | 1023.6 |
| 20260501213958 | 15 | 266 | 6.4 | 9.7 | 0.00 | 0.00 | 0.00 | 31 | 1023.5 |
| 20260501213455 | 16 | 252 | 3.2 | 6.4 | 0.00 | 0.00 | 0.00 | 28 | 1023.6 |
| 20260501212950 | 15 | 255 | 4.8 | 12.9 | 0.00 | 0.00 | 0.00 | 29 | 1023.8 |
| 20260501212447 | 16 | 247 | 6.4 | 12.9 | 0.00 | 0.00 | 0.00 | 28 | 1023.8 |
| 20260501211944 | 16 | 280 | 6.4 | 6.4 | 0.00 | 0.00 | 0.00 | 27 | 1023.7 |
| 20260501211441 | 15 | 252 | 3.2 | 8.0 | 0.00 | 0.00 | 0.00 | 28 | 1023.8 |
| 20260501210939 | 15 | 216 | 0.0 | 6.4 | 0.00 | 0.00 | 0.00 | 29 | 1023.9 |
| 20260501210435 | 16 | 237 | 8.0 | 9.7 | 0.00 | 0.00 | 0.00 | 29 | 1024.1 |
| 20260501205932 | 15 | 275 | 8.0 | 8.0 | 0.00 | 0.00 | 0.00 | 29 | 1023.9 |
| 20260501205429 | 14 | 250 | 8.0 | 9.7 | 0.00 | 0.00 | 0.00 | 29 | 1024.1 |
| 20260501204926 | 15 | 258 | 9.7 | 12.9 | 0.00 | 0.00 | 0.00 | 32 | 1023.9 |
| 20260501204421 | 14 | 244 | 8.0 | 9.7 | 0.00 | 0.00 | 0.00 | 31 | 1024.2 |
| 20260501203918 | 13 | 250 | 6.4 | 8.0 | 0.00 | 0.00 | 0.00 | 33 | 1024.1 |
| 20260501203415 | 14 | 262 | 4.8 | 12.9 | 0.00 | 0.00 | 0.00 | 33 | 1024.2 |
| 20260501202913 | 13 | 262 | 6.4 | 6.4 | 0.00 | 0.00 | 0.00 | 34 | 1024.2 |
| 20260501202409 | 13 | 266 | 4.8 | 8.0 | 0.00 | 0.00 | 0.00 | 33 | 1024.3 |
| 20260501201906 | 13 | 284 | 3.2 | 6.4 | 0.00 | 0.00 | 0.00 | 34 | 1024.2 |
| 20260501201403 | 13 | 272 | 4.8 | 12.9 | 0.00 | 0.00 | 0.00 | 35 | 1024.2 |
| 20260501200859 | 13 | 284 | 3.2 | 6.4 | 0.00 | 0.00 | 0.00 | 34 | 1024.2 |
| 20260501200356 | 13 | 261 | 4.8 | 8.0 | 0.00 | 0.00 | 0.00 | 35 | 1024.2 |
| 20260501195854 | 12 | 271 | 8.0 | 11.3 | 0.00 | 0.00 | 0.00 | 37 | 1024.4 |
| 20260501195349 | 13 | 277 | 1.6 | 4.8 | 0.00 | 0.00 | 0.00 | 36 | 1024.6 |
| 20260501194846 | 12 | 330 | 3.2 | 6.4 | 0.00 | 0.00 | 0.00 | 39 | 1024.6 |
| 20260501194342 | 12 | 271 | 3.2 | 11.3 | 0.00 | 0.00 | 0.00 | 39 | 1024.6 |
| 20260501193838 | 12 | 184 | 0.0 | 3.2 | 0.00 | 0.00 | 0.00 | 37 | 1024.6 |
| 20260501193337 | 12 | 282 | 4.8 | 6.4 | 0.00 | 0.00 | 0.00 | 39 | 1024.6 |
| 20260501192834 | 12 | 243 | 8.0 | 8.0 | 0.00 | 0.00 | 0.00 | 40 | 1024.3 |
| 20260501192331 | 11 | 127 | 0.0 | 8.0 | 0.00 | 0.00 | 0.00 | 38 | 1024.6 |
| 20260501191828 | 11 | 263 | 6.4 | 9.7 | 0.00 | 0.00 | 0.00 | 40 | 1024.6 |
| 20260501191326 | 11 | 261 | 6.4 | 8.0 | 0.00 | 0.00 | 0.00 | 40 | 1024.8 |
| 20260501190822 | 11 | 252 | 8.0 | 9.7 | 0.00 | 0.00 | 0.00 | 39 | 1024.8 |
| 20260501190318 | 11 | 279 | 4.8 | 9.7 | 0.00 | 0.00 | 0.00 | 39 | 1024.9 |
| 20260501185813 | 11 | 305 | 4.8 | 6.4 | 0.00 | 0.00 | 0.00 | 40 | 1025.2 |
| 20260501185310 | 11 | 263 | 6.4 | 8.0 | 0.00 | 0.00 | 0.00 | 43 | 1024.9 |
| 20260501184806 | 10 | 318 | 3.2 | 11.3 | 0.00 | 0.00 | 0.00 | 42 | 1024.9 |
| 20260501184302 | 10 | 237 | 8.0 | 9.7 | 0.00 | 0.00 | 0.00 | 41 | 1024.9 |
| 20260501183758 | 10 | 246 | 4.8 | 12.9 | 0.00 | 0.00 | 0.00 | 43 | 1025.0 |
| 20260501183255 | 10 | 247 | 6.4 | 11.3 | 0.00 | 0.00 | 0.00 | 41 | 1025.2 |
| 20260501182751 | 10 | 296 | 3.2 | 8.0 | 0.00 | 0.00 | 0.00 | 43 | 1025.0 |
| 20260501182248 | 10 | 296 | 4.8 | 8.0 | 0.00 | 0.00 | 0.00 | 41 | 1024.9 |
| 20260501181745 | 10 | 254 | 8.0 | 11.3 | 0.00 | 0.00 | 0.00 | 42 | 1025.3 |
| 20260501181242 | 9 | 325 | 3.2 | 8.0 | 0.00 | 0.00 | 0.00 | 42 | 1025.0 |
| 20260501180740 | 9 | 247 | 4.8 | 8.0 | 0.00 | 0.00 | 0.00 | 44 | 1025.4 |
| 20260501180235 | 10 | 237 | 4.8 | 8.0 | 0.00 | 0.00 | 0.00 | 42 | 1025.3 |
| 20260501175732 | 9 | 249 | 9.7 | 9.7 | 0.00 | 0.00 | 0.00 | 45 | 1025.5 |
| 20260501175230 | 9 | 317 | 3.2 | 8.0 | 0.00 | 0.00 | 0.00 | 44 | 1025.3 |
| 20260501174726 | 10 | 232 | 8.0 | 9.7 | 0.00 | 0.00 | 0.00 | 44 | 1025.5 |
| 20260501174223 | 8 | 258 | 0.0 | 8.0 | 0.00 | 0.00 | 0.00 | 45 | 1025.5 |
| 20260501173721 | 8 | 246 | 3.2 | 9.7 | 0.00 | 0.00 | 0.00 | 46 | 1025.6 |
| 20260501173218 | 8 | 245 | 9.7 | 9.7 | 0.00 | 0.00 | 0.00 | 44 | 1025.6 |
| 20260501172714 | 8 | 274 | 3.2 | 9.7 | 0.00 | 0.00 | 0.00 | 48 | 1025.5 |
| 20260501172209 | 8 | 259 | 8.0 | 14.5 | 0.00 | 0.00 | 0.00 | 46 | 1025.6 |